WB2IFS-13 Weather Reports


time (UTC)temp
C
wind
direction
speed
KPH
gust
KPH
rain 1hr
cm
rain 24hr
cm
rain mn
cm
humidity
%
barometer
mb
20260507115958 12 269 0.0 3.2 0.00 0.53 0.48 89 1013.5
20260507114459 12 253 0.0 1.6 0.00 0.53 0.48 95 1013.2
20260507112958 12 254 0.0 1.6 0.00 0.53 0.48 95 1013.1
20260507111459 11 253 0.0 3.2 0.00 0.53 0.48 94 1013.2
20260507105959 11 216 0.0 3.2 0.00 0.53 0.48 94 1013.2
20260507104458 11 277 0.0 1.6 0.00 0.53 0.48 95 1013.1
20260507102958 11 190 0.0 0.0 0.00 0.53 0.48 96 1012.7
20260507101458 11 189 0.0 0.0 0.00 0.53 0.48 95 1012.6
20260507095958 11 190 0.0 0.0 0.00 0.53 0.48 95 1012.5
20260507094458 11 189 0.0 0.0 0.00 0.53 0.48 94 1012.6
20260507092958 11 201 0.0 1.6 0.00 0.53 0.48 94 1012.4
20260507091458 11 223 0.0 1.6 0.00 0.53 0.48 93 1012.8
20260507085959 11 222 0.0 1.6 0.00 0.53 0.48 92 1012.5
20260507084458 11 232 1.6 9.7 0.00 0.53 0.48 92 1012.4
20260507082958 12 46 0.0 1.6 0.00 0.53 0.48 93 1012.3
20260507081457 12 136 0.0 4.8 0.00 0.53 0.48 93 1012.0
20260507080001 12 255 0.0 1.6 0.00 0.53 0.48 95 1011.6
20260507074458 12 278 0.0 3.2 0.00 0.53 0.48 96 1011.7
20260507073001 12 108 0.0 4.8 0.00 0.53 0.48 96 1011.4
20260507071459 12 28 0.0 3.2 0.00 0.53 0.48 96 1011.5
20260507070004 13 257 0.0 3.2 0.00 0.53 0.48 96 1011.3
20260507064459 13 28 1.6 3.2 0.00 0.53 0.48 96 1011.4
20260507063000 13 294 1.6 6.4 0.00 0.53 0.48 95 1011.3
20260507061459 13 285 1.6 8.0 0.00 0.53 0.48 96 1010.7
20260507060000 14 82 0.0 3.2 0.05 0.53 0.48 96 1010.8
20260507054459 14 310 0.0 0.0 0.33 0.53 0.48 96 1011.2
20260507052958 14 157 0.0 1.6 0.46 0.53 0.48 96 1010.9
20260507051500 15 210 0.0 3.2 0.48 0.53 0.48 95 1011.4
20260507050001 15 322 1.6 4.8 0.43 0.48 0.43 94 1011.4
20260507044500 15 321 0.0 1.6 0.15 0.20 0.15 93 1011.8
20260507043000 16 34 0.0 4.8 0.03 0.08 0.03 91 1011.3
20260507041500 16 274 0.0 1.6 0.00 0.05 0.00 90 1011.4
20260507040000 16 325 0.0 8.0 0.00 0.05 0.05 91 1010.9
20260507034501 16 349 0.0 1.6 0.00 0.05 0.05 92 1011.1
20260507033001 17 249 0.0 1.6 0.00 0.05 0.05 92 1011.0
20260507031500 17 70 0.0 4.8 0.00 0.05 0.05 91 1010.8
20260507030001 18 119 1.6 6.4 0.00 0.05 0.05 92 1010.7
20260507024501 18 89 0.0 1.6 0.00 0.05 0.05 92 1010.3
20260507022959 18 97 0.0 0.0 0.00 0.05 0.05 91 1010.0
20260507021459 18 97 0.0 1.6 0.00 0.05 0.05 92 1009.8
20260507020001 18 102 0.0 0.0 0.00 0.05 0.05 93 1010.2
20260507014501 17 102 0.0 0.0 0.00 0.05 0.05 93 1010.0
20260507013000 18 101 0.0 1.6 0.00 0.05 0.05 92 1010.2
20260507011459 18 101 0.0 0.0 0.00 0.05 0.05 93 1010.5
20260507010002 17 101 0.0 0.0 0.00 0.05 0.05 92 1010.4
20260507004500 17 101 0.0 0.0 0.00 0.05 0.05 92 1010.2
20260507002959 18 101 0.0 0.0 0.00 0.05 0.05 91 1010.2
20260507001459 18 101 0.0 0.0 0.00 0.05 0.05 90 1010.1
20260507000002 18 101 0.0 0.0 0.00 0.05 0.05 88 1009.9
20260506234459 19 101 0.0 1.6 0.00 0.05 0.05 86 1009.7
20260506233000 20 86 0.0 4.8 0.00 0.05 0.05 84 1009.6
20260506231500 20 161 1.6 3.2 0.00 0.05 0.05 83 1009.5
20260506230001 20 160 1.6 4.8 0.00 0.05 0.05 82 1009.4
20260506224459 20 253 1.6 6.4 0.00 0.05 0.05 82 1009.4
20260506221459 20 255 1.6 6.4 0.00 0.05 0.05 81 1009.4
20260506220003 20 283 3.2 8.0 0.00 0.05 0.05 81 1009.4
20260506214500 20 135 3.2 8.0 0.00 0.05 0.05 81 1009.5
20260506213000 20 245 3.2 9.7 0.00 0.05 0.05 80 1009.4
20260506211502 20 81 4.8 19.3 0.00 0.05 0.05 80 1009.2
20260506210001 20 229 4.8 12.9 0.00 0.05 0.05 80 1009.1
20260506204500 20 154 4.8 14.5 0.00 0.05 0.05 80 1009.0
20260506203000 20 169 4.8 11.3 0.00 0.05 0.05 81 1008.9
20260506201459 20 101 4.8 16.1 0.00 0.05 0.05 82 1008.9
20260506200002 20 282 8.0 17.7 0.00 0.05 0.05 82 1008.8
20260506194500 20 64 4.8 17.7 0.00 0.05 0.05 82 1008.9
20260506193000 20 86 4.8 19.3 0.00 0.05 0.05 82 1009.4
20260506191459 19 133 6.4 19.3 0.00 0.05 0.05 83 1009.6
20260506190001 20 172 6.4 16.1 0.00 0.05 0.05 82 1009.6
20260506184500 20 288 6.4 12.9 0.00 0.05 0.05 81 1009.4
20260506183000 20 159 6.4 16.1 0.00 0.05 0.05 82 1009.7
20260506181459 19 262 6.4 19.3 0.00 0.05 0.05 82 1009.9
20260506180001 19 55 6.4 16.1 0.00 0.05 0.05 82 1009.7
20260506174501 18 135 8.0 19.3 0.00 0.05 0.05 83 1009.8
20260506173000 18 86 6.4 14.5 0.00 0.05 0.05 85 1010.0
20260506171459 18 238 8.0 22.5 0.00 0.05 0.05 85 1010.0
20260506170001 18 129 6.4 17.7 0.00 0.05 0.05 87 1010.1
20260506164501 17 107 6.4 17.7 0.00 0.05 0.05 89 1010.3
20260506162959 17 172 6.4 17.7 0.00 0.05 0.05 91 1010.3
20260506161459 17 73 6.4 24.1 0.00 0.05 0.05 91 1010.5
20260506160004 17 129 6.4 19.3 0.00 0.05 0.05 93 1010.8
20260506154458 16 158 3.2 12.9 0.00 0.05 0.05 93 1011.0
20260506152959 16 134 3.2 16.1 0.00 0.05 0.05 93 1011.0
20260506151501 16 212 4.8 14.5 0.00 0.05 0.05 93 1011.4
20260506150002 16 158 3.2 11.3 0.00 0.05 0.05 93 1011.7
20260506144458 16 4 1.6 8.0 0.00 0.05 0.05 93 1011.7
20260506143000 16 37 1.6 8.0 0.05 0.05 0.05 92 1011.6
20260506141459 16 225 3.2 9.7 0.05 0.05 0.05 90 1011.7
20260506140000 16 79 3.2 11.3 0.05 0.05 0.05 88 1011.7
20260506134459 16 79 3.2 11.3 0.05 0.05 0.05 86 1011.9
20260506132959 17 180 3.2 9.7 0.00 0.00 0.00 84 1011.9
20260506131458 17 330 3.2 9.7 0.00 0.00 0.00 82 1011.8
20260506130001 17 198 3.2 12.9 0.00 0.00 0.00 81 1011.6
20260506124459 17 223 3.2 9.7 0.00 0.00 0.00 80 1011.3
20260506123000 17 117 4.8 17.7 0.00 0.00 0.00 80 1011.4
20260506121500 18 13 3.2 9.7 0.00 0.00 0.00 78 1011.8